TimeCDT,TemperatureF,Dew PointF,Humidity,Sea Level PressureIn,VisibilityMPH,Wind Direction,Wind SpeedMPH,Gust SpeedMPH,PrecipitationIn,Events,Conditions,WindDirDegrees,DateUTC
12:55 AM,36.0,28.9,76,30.41,10.0,NW,6.9,-,N/A,,Clear,310,2013-05-03 05:55:00
1:55 AM,36.0,28.0,73,30.39,10.0,NW,6.9,-,N/A,,Clear,320,2013-05-03 06:55:00
2:55 AM,34.0,27.0,75,30.37,10.0,NW,6.9,-,N/A,,Clear,320,2013-05-03 07:55:00
3:55 AM,33.1,26.1,75,30.36,10.0,NW,6.9,-,N/A,,Clear,320,2013-05-03 08:55:00
4:55 AM,32.0,26.1,79,30.36,10.0,NW,8.1,-,N/A,,Clear,320,2013-05-03 09:55:00
5:55 AM,32.0,25.0,75,30.35,10.0,North,6.9,-,N/A,,Clear,360,2013-05-03 10:55:00
6:55 AM,32.0,25.0,75,30.34,10.0,NNW,6.9,-,N/A,,Clear,340,2013-05-03 11:55:00
7:55 AM,35.1,27.0,72,30.33,10.0,NNW,6.9,-,N/A,,Clear,340,2013-05-03 12:55:00
8:55 AM,39.9,27.0,60,30.31,10.0,North,10.4,18.4,N/A,,Clear,360,2013-05-03 13:55:00
9:55 AM,43.0,27.0,53,30.29,10.0,North,11.5,-,N/A,,Clear,350,2013-05-03 14:55:00
10:55 AM,46.9,26.1,44,30.26,10.0,North,13.8,21.9,N/A,,Unknown,360,2013-05-03 15:55:00
11:55 AM,48.9,21.9,35,30.23,10.0,North,17.3,24.2,N/A,,Unknown,350,2013-05-03 16:55:00
12:55 PM,51.1,23.0,33,30.19,-9999.0,North,18.4,-,N/A,,Unknown,360,2013-05-03 17:55:00
1:55 PM,55.0,26.1,33,30.15,10.0,NNW,20.7,31.1,N/A,,Clear,340,2013-05-03 18:55:00
2:55 PM,55.0,24.1,30,30.14,10.0,North,23.0,33.4,N/A,,Clear,360,2013-05-03 19:55:00
3:55 PM,55.0,23.0,29,30.12,10.0,North,17.3,29.9,N/A,,Clear,10,2013-05-03 20:55:00
4:55 PM,55.0,21.0,27,30.10,10.0,North,19.6,31.1,N/A,,Clear,10,2013-05-03 21:55:00
5:55 PM,54.0,21.0,28,30.08,10.0,North,18.4,26.5,N/A,,Clear,360,2013-05-03 22:55:00
6:55 PM,53.1,21.0,29,30.07,10.0,North,21.9,27.6,N/A,,Clear,360,2013-05-03 23:55:00
7:55 PM,50.0,21.0,32,30.07,10.0,North,15.0,24.2,N/A,,Clear,360,2013-05-04 00:55:00
8:55 PM,46.9,24.1,41,30.07,10.0,North,11.5,-,N/A,,Partly Cloudy,360,2013-05-04 01:55:00
9:55 PM,46.0,26.1,46,30.06,10.0,North,9.2,-,N/A,,Clear,350,2013-05-04 02:55:00
10:55 PM,45.0,27.0,49,30.04,10.0,NNW,11.5,-,N/A,,Clear,340,2013-05-04 03:55:00
11:55 PM,45.0,27.0,49,30.03,10.0,North,10.4,-,N/A,,Clear,350,2013-05-04 04:55:00